Retour au catalogue

STARLINK-4546

ActifCommunicationsVLEO
NORAD 53422·PAYLOAD·🇺🇸 United States

Lancé Aug 10, 2022 depuis Cape Canaveral Space Force Station

Loading…

Prochains Passages (prochaines 24 heures)

TLE

FraisSource: CelesTrak SupGP

Époque: Sep 15, 2026, 02:12 UTC

1 53422C 22097AL  26258.09215278  .00050847  00000+0  15023-2 0  2587
2 53422  53.1574 331.2675 0001238  89.0603 186.9893 15.34364440    19

Suivez STARLINK-4546 en temps réel avec AllMySat

Download on the App Store